SRV160M DRRN-FTTJ

Flight info

Callsign SRV160M
Flight time 2h 2m
Altitude 35000
Route POLKI1W POLKI DCT DOGON UG854 SIGAL SIGAL1L
Aircraft E195/M-SDE3GILORVW/S

Departure

Time 2026-05-06 18:49
Airport Diori Hamani International Airport (DRRN)

Arrival

Time 2026-05-06 20:51
Airport N'Djamena International Airport (FTTJ)
Time Latitude Longitude Altitude Speed Heading
2026-05-06 18:24 13.47783 2.17667 729 ft 0 kts 143°
2026-05-06 18:38 13.47782 2.17670 729 ft 2 kts 123°
2026-05-06 18:38 13.47782 2.17672 729 ft 3 kts 116°
2026-05-06 18:38 13.47787 2.17683 728 ft 1 kts 37°
2026-05-06 18:39 13.47791 2.17682 728 ft 1 kts 15°
2026-05-06 18:39 13.47797 2.17682 728 ft 1 kts
2026-05-06 18:39 13.47800 2.17682 729 ft 0 kts
2026-05-06 18:40 13.47802 2.17682 729 ft 0 kts
2026-05-06 18:40 13.47813 2.17682 729 ft 2 kts
2026-05-06 18:40 13.47841 2.17686 729 ft 5 kts 21°
2026-05-06 18:40 13.47865 2.17720 728 ft 8 kts 73°
2026-05-06 18:41 13.47873 2.17782 730 ft 9 kts 82°
2026-05-06 18:41 13.47897 2.17852 727 ft 9 kts 83°
2026-05-06 18:41 13.47902 2.17899 728 ft 5 kts 88°
2026-05-06 18:41 13.47903 2.17941 728 ft 5 kts 88°
2026-05-06 18:42 13.47906 2.18017 726 ft 13 kts 88°
2026-05-06 18:42 13.47909 2.18109 725 ft 11 kts 88°
2026-05-06 18:42 13.47911 2.18175 724 ft 7 kts 88°
2026-05-06 18:42 13.47912 2.18211 725 ft 3 kts 88°
2026-05-06 18:43 13.47913 2.18234 724 ft 8 kts 88°
2026-05-06 18:43 13.47918 2.18379 724 ft 20 kts 88°
2026-05-06 18:43 13.47941 2.18504 725 ft 16 kts 37°
2026-05-06 18:43 13.48029 2.18544 723 ft 12 kts 39°
2026-05-06 18:44 13.48051 2.18622 721 ft 13 kts 90°
2026-05-06 18:44 13.48052 2.18732 721 ft 15 kts 88°
2026-05-06 18:44 13.48055 2.18825 720 ft 11 kts 88°
2026-05-06 18:44 13.48058 2.18890 722 ft 8 kts 88°
2026-05-06 18:45 13.48060 2.18936 719 ft 5 kts 88°
2026-05-06 18:45 13.48063 2.19026 717 ft 15 kts 88°
2026-05-06 18:45 13.48069 2.19131 716 ft 17 kts 86°
2026-05-06 18:45 13.48075 2.19224 715 ft 22 kts 86°
2026-05-06 18:46 13.48083 2.19408 713 ft 29 kts 88°
2026-05-06 18:46 13.48089 2.19603 713 ft 25 kts 88°
2026-05-06 18:46 13.48176 2.19702 713 ft 18 kts
2026-05-06 18:46 13.48278 2.19733 711 ft 15 kts 57°
2026-05-06 18:47 13.48295 2.19860 711 ft 22 kts 87°
2026-05-06 18:47 13.48302 2.20032 714 ft 25 kts 87°
2026-05-06 18:47 13.48310 2.20206 709 ft 22 kts 88°
2026-05-06 18:47 13.48277 2.20335 708 ft 17 kts 114°
2026-05-06 18:48 13.48279 2.20428 702 ft 11 kts 42°
2026-05-06 18:48 13.48323 2.20419 705 ft 4 kts 289°
2026-05-06 18:48 13.48322 2.20408 707 ft 4 kts 267°
2026-05-06 18:48 13.48308 2.20147 712 ft 69 kts 267°
2026-05-06 18:49 13.48276 2.19448 713 ft 129 kts 267°
2026-05-06 18:49 13.48223 2.18331 805 ft 178 kts 268°
2026-05-06 18:49 13.48157 2.16939 1250 ft 212 kts 268°
2026-05-06 18:49 13.48081 2.15303 1711 ft 246 kts 264°
2026-05-06 18:50 13.48006 2.13660 2415 ft 230 kts 265°
2026-05-06 18:50 13.47934 2.11982 3172 ft 239 kts 266°
2026-05-06 18:50 13.47863 2.10251 4141 ft 253 kts 267°
2026-05-06 18:50 13.48288 2.08390 4719 ft 279 kts 301°
2026-05-06 18:51 13.49716 2.07014 5757 ft 289 kts 333°
2026-05-06 18:51 13.51683 2.06627 6838 ft 293 kts
2026-05-06 18:51 13.53565 2.07357 7918 ft 292 kts 38°
2026-05-06 18:51 13.54768 2.08967 8985 ft 290 kts 69°
2026-05-06 18:52 13.55157 2.10989 10068 ft 291 kts 82°
2026-05-06 18:52 13.55390 2.13114 10723 ft 306 kts 83°
2026-05-06 18:52 13.55513 2.15336 11489 ft 314 kts 85°
2026-05-06 18:52 13.56066 2.17511 12298 ft 319 kts 64°
2026-05-06 18:53 13.56977 2.19606 13163 ft 323 kts 76°
2026-05-06 18:53 13.57001 2.21907 13967 ft 328 kts 104°
2026-05-06 18:53 13.55957 2.23988 14746 ft 334 kts 128°
2026-05-06 18:53 13.54372 2.25716 15565 ft 339 kts 133°
2026-05-06 18:54 13.52752 2.27501 16350 ft 343 kts 131°
2026-05-06 18:54 13.51156 2.29341 17098 ft 348 kts 130°
2026-05-06 18:54 13.49641 2.31292 17806 ft 352 kts 120°
2026-05-06 18:54 13.48864 2.33666 18407 ft 355 kts 96°
2026-05-06 18:55 13.48854 2.36211 19025 ft 358 kts 88°
2026-05-06 18:55 13.48964 2.38780 19618 ft 361 kts 88°
2026-05-06 18:55 13.49074 2.41376 20158 ft 366 kts 88°
2026-05-06 18:55 13.49189 2.44003 20714 ft 370 kts 88°
2026-05-06 18:56 13.49314 2.46661 21268 ft 374 kts 88°
2026-05-06 18:56 13.49440 2.49344 21803 ft 378 kts 88°
2026-05-06 18:56 13.49570 2.52060 22317 ft 382 kts 88°
2026-05-06 18:56 13.49706 2.54800 22835 ft 386 kts 88°
2026-05-06 18:57 13.49844 2.57529 23350 ft 389 kts 88°
2026-05-06 18:57 13.49986 2.60327 23758 ft 393 kts 88°
2026-05-06 18:57 13.50130 2.63146 24159 ft 397 kts 88°
2026-05-06 18:57 13.50279 2.65991 24551 ft 400 kts 87°
2026-05-06 18:58 13.50431 2.68860 24929 ft 403 kts 87°
2026-05-06 18:58 13.50588 2.71754 25290 ft 407 kts 87°
2026-05-06 18:58 13.50748 2.74672 25634 ft 410 kts 87°
2026-05-06 18:58 13.50910 2.77611 25989 ft 413 kts 87°
2026-05-06 18:59 13.51074 2.80576 26344 ft 417 kts 86°
2026-05-06 18:59 13.51240 2.83560 26691 ft 420 kts 86°
2026-05-06 18:59 13.51408 2.86566 27037 ft 423 kts 86°
2026-05-06 18:59 13.51578 2.89562 27365 ft 426 kts 86°
2026-05-06 19:00 13.51752 2.92616 27697 ft 430 kts 86°
2026-05-06 19:00 13.51929 2.95690 28037 ft 433 kts 86°
2026-05-06 19:00 13.52106 2.98784 28377 ft 435 kts 86°
2026-05-06 19:00 13.52287 3.01904 28703 ft 438 kts 86°
2026-05-06 19:01 13.52469 3.05038 29025 ft 440 kts 86°
2026-05-06 19:01 13.52652 3.08188 29336 ft 442 kts 86°
2026-05-06 19:01 13.52839 3.11352 29625 ft 445 kts 86°
2026-05-06 19:01 13.53028 3.14534 29874 ft 447 kts 86°
2026-05-06 19:02 13.53218 3.17741 30095 ft 450 kts 86°
2026-05-06 19:02 13.53409 3.20921 30311 ft 452 kts 86°
2026-05-06 19:02 13.53602 3.24150 30528 ft 454 kts 85°
2026-05-06 19:02 13.53796 3.27401 30742 ft 456 kts 85°
2026-05-06 19:03 13.53994 3.30661 30958 ft 459 kts 85°
2026-05-06 19:03 13.54191 3.33943 31166 ft 461 kts 85°
2026-05-06 19:03 13.54391 3.37238 31372 ft 463 kts 85°
2026-05-06 19:03 13.54591 3.40556 31568 ft 465 kts 85°
2026-05-06 19:04 13.54794 3.43885 31772 ft 467 kts 85°
2026-05-06 19:04 13.54998 3.47227 31981 ft 469 kts 85°
2026-05-06 19:04 13.55200 3.50541 32262 ft 469 kts 85°
2026-05-06 19:04 13.55404 3.53898 32566 ft 469 kts 85°
2026-05-06 19:05 13.55610 3.57239 32851 ft 469 kts 85°
2026-05-06 19:05 13.55791 3.60587 33126 ft 469 kts 86°
2026-05-06 19:05 13.55954 3.63938 33386 ft 469 kts 86°
2026-05-06 19:05 13.56119 3.67291 33644 ft 469 kts 86°
2026-05-06 19:06 13.56285 3.70643 33868 ft 469 kts 86°
2026-05-06 19:06 13.56447 3.73949 34085 ft 469 kts 86°
2026-05-06 19:06 13.56612 3.77300 34304 ft 468 kts 86°
2026-05-06 19:06 13.56777 3.80639 34538 ft 468 kts 86°
2026-05-06 19:07 13.56940 3.83979 34832 ft 465 kts 86°
2026-05-06 19:07 13.57270 3.90703 34815 ft 476 kts 86°
2026-05-06 19:08 13.57605 3.97567 34837 ft 485 kts 86°
2026-05-06 19:08 13.57943 4.04541 34806 ft 491 kts 86°
2026-05-06 19:09 13.58281 4.11553 34738 ft 491 kts 86°
2026-05-06 19:09 13.58615 4.18523 34736 ft 492 kts 86°
2026-05-06 19:10 13.58951 4.25554 34741 ft 492 kts 86°
2026-05-06 19:10 13.59283 4.32595 34735 ft 493 kts 86°
2026-05-06 19:11 13.59336 4.39579 34728 ft 478 kts 97°
2026-05-06 19:11 13.58883 4.42899 34700 ft 461 kts 97°
2026-05-06 19:11 13.58480 4.46113 34648 ft 445 kts 96°
2026-05-06 19:11 13.58111 4.49214 34654 ft 429 kts 96°
2026-05-06 19:12 13.57765 4.52226 34749 ft 423 kts 96°
2026-05-06 19:12 13.57086 4.58308 34746 ft 432 kts 95°
2026-05-06 19:13 13.56408 4.64475 34764 ft 435 kts 95°
2026-05-06 19:13 13.55736 4.70617 34769 ft 435 kts 95°
2026-05-06 19:14 13.55058 4.76807 34754 ft 436 kts 95°
2026-05-06 19:14 13.54380 4.82993 34729 ft 435 kts 95°
2026-05-06 19:15 13.53701 4.89183 34730 ft 435 kts 95°
2026-05-06 19:15 13.53021 4.95359 34731 ft 435 kts 95°
2026-05-06 19:16 13.52340 5.01541 34730 ft 435 kts 95°
2026-05-06 19:16 13.51657 5.07722 34730 ft 435 kts 95°
2026-05-06 19:17 13.50976 5.13871 34730 ft 435 kts 95°
2026-05-06 19:17 13.50287 5.20064 34732 ft 436 kts 95°
2026-05-06 19:18 13.49600 5.26248 34731 ft 436 kts 95°
2026-05-06 19:18 13.48909 5.32444 34731 ft 436 kts 95°
2026-05-06 19:19 13.48221 5.38596 34729 ft 436 kts 95°
2026-05-06 19:19 13.47527 5.44794 34726 ft 436 kts 95°
2026-05-06 19:20 13.46831 5.50998 34732 ft 436 kts 95°
2026-05-06 19:20 13.46138 5.57158 34735 ft 436 kts 95°
2026-05-06 19:21 13.45438 5.63358 34731 ft 436 kts 95°
2026-05-06 19:21 13.44738 5.69557 34730 ft 437 kts 95°
2026-05-06 19:22 13.44036 5.75762 34734 ft 437 kts 95°
2026-05-06 19:22 13.43331 5.81965 34731 ft 437 kts 95°
2026-05-06 19:23 13.42625 5.88163 34737 ft 437 kts 95°
2026-05-06 19:23 13.41923 5.94326 34731 ft 437 kts 95°
2026-05-06 19:24 13.41214 6.00534 34734 ft 437 kts 95°
2026-05-06 19:24 13.40503 6.06739 34735 ft 437 kts 95°
2026-05-06 19:25 13.39791 6.12940 34734 ft 437 kts 95°
2026-05-06 19:25 13.39077 6.19152 34733 ft 437 kts 95°
2026-05-06 19:26 13.38361 6.25355 34730 ft 437 kts 95°
2026-05-06 19:26 13.37650 6.31516 34733 ft 437 kts 95°
2026-05-06 19:27 13.36929 6.37736 34730 ft 438 kts 95°
2026-05-06 19:27 13.36208 6.43949 34733 ft 438 kts 95°
2026-05-06 19:28 13.35491 6.50116 34731 ft 438 kts 95°
2026-05-06 19:28 13.34768 6.56325 34734 ft 438 kts 95°
2026-05-06 19:29 13.34042 6.62542 34732 ft 438 kts 95°
2026-05-06 19:29 13.33316 6.68754 34732 ft 438 kts 95°
2026-05-06 19:30 13.32588 6.74966 34735 ft 438 kts 95°
2026-05-06 19:30 13.31864 6.81139 34735 ft 438 kts 95°
2026-05-06 19:31 13.31137 6.87317 34752 ft 438 kts 95°
2026-05-06 19:31 13.30037 6.96641 34770 ft 438 kts 95°
2026-05-06 19:32 13.29305 7.02849 34782 ft 438 kts 95°
2026-05-06 19:32 13.28570 7.09066 34786 ft 438 kts 95°
2026-05-06 19:33 13.27837 7.15239 34783 ft 438 kts 95°
2026-05-06 19:33 13.27099 7.21449 34734 ft 438 kts 95°
2026-05-06 19:34 13.26359 7.27662 34738 ft 438 kts 95°
2026-05-06 19:34 13.25619 7.33869 34737 ft 438 kts 95°
2026-05-06 19:35 13.25066 7.38490 34736 ft 438 kts 95°
2026-05-06 19:35 13.24199 7.45706 34739 ft 438 kts 95°
2026-05-06 19:36 13.23574 7.50906 34742 ft 438 kts 95°
2026-05-06 19:36 13.22817 7.57112 34736 ft 438 kts 95°
2026-05-06 19:37 13.22069 7.63280 34741 ft 438 kts 95°
2026-05-06 19:37 13.21317 7.69492 34742 ft 438 kts 95°
2026-05-06 19:38 13.20564 7.75694 34742 ft 438 kts 95°
2026-05-06 19:38 13.19809 7.81917 34745 ft 438 kts 95°
2026-05-06 19:39 13.19057 7.88118 34746 ft 438 kts 95°
2026-05-06 19:39 13.18301 7.94279 34745 ft 438 kts 95°
2026-05-06 19:40 13.17541 8.00477 34748 ft 438 kts 95°
2026-05-06 19:40 13.16783 8.06678 34747 ft 438 kts 95°
2026-05-06 19:41 13.16023 8.12875 34747 ft 437 kts 95°
2026-05-06 19:41 13.15266 8.19041 34745 ft 437 kts 95°
2026-05-06 19:42 13.14505 8.25234 34744 ft 437 kts 95°
2026-05-06 19:42 13.13770 8.31199 34747 ft 437 kts 95°
2026-05-06 19:43 13.13005 8.37401 34744 ft 437 kts 95°
2026-05-06 19:43 13.12237 8.43594 34748 ft 437 kts 95°
2026-05-06 19:44 13.11480 8.49784 34748 ft 437 kts 95°
2026-05-06 19:44 13.10725 8.55959 34747 ft 437 kts 95°
2026-05-06 19:45 13.09961 8.62156 34745 ft 437 kts 95°
2026-05-06 19:45 13.09202 8.68302 34747 ft 437 kts 95°
2026-05-06 19:46 13.08449 8.74275 34746 ft 437 kts 95°
2026-05-06 19:46 13.07679 8.80466 34746 ft 437 kts 95°
2026-05-06 19:47 13.06896 8.86658 34746 ft 437 kts 95°
2026-05-06 19:47 13.06121 8.92847 34746 ft 437 kts 95°
2026-05-06 19:48 13.05345 8.99031 34742 ft 437 kts 95°
2026-05-06 19:48 13.04567 9.05216 34739 ft 437 kts 95°
2026-05-06 19:49 13.03797 9.11354 34741 ft 437 kts 95°
2026-05-06 19:49 13.03013 9.17572 34743 ft 437 kts 95°
2026-05-06 19:50 13.02228 9.23711 34742 ft 437 kts 95°
2026-05-06 19:50 13.01438 9.29893 34741 ft 437 kts 95°
2026-05-06 19:51 13.00655 9.36071 34742 ft 437 kts 95°
2026-05-06 19:51 12.99871 9.42243 34747 ft 437 kts 95°
2026-05-06 19:52 12.99082 9.48421 34746 ft 437 kts 95°
2026-05-06 19:52 12.98294 9.54601 34748 ft 437 kts 95°
2026-05-06 19:53 12.97501 9.60747 34748 ft 437 kts 95°
2026-05-06 19:53 12.96704 9.66925 34751 ft 437 kts 95°
2026-05-06 19:54 12.95909 9.73104 34751 ft 437 kts 95°
2026-05-06 19:54 12.95116 9.79276 34749 ft 437 kts 95°
2026-05-06 19:55 12.94298 9.85452 34752 ft 437 kts 95°
2026-05-06 19:55 12.93495 9.91615 34749 ft 436 kts 95°
2026-05-06 19:56 12.92683 9.97784 34748 ft 436 kts 95°
2026-05-06 19:56 12.91879 10.03915 34751 ft 436 kts 95°
2026-05-06 19:57 12.91061 10.10081 34750 ft 437 kts 95°
2026-05-06 19:57 12.90243 10.16247 34749 ft 436 kts 95°
2026-05-06 19:58 12.89433 10.22426 34749 ft 436 kts 95°
2026-05-06 19:58 12.88627 10.28550 34753 ft 436 kts 95°
2026-05-06 19:59 12.87832 10.34718 34753 ft 436 kts 95°
2026-05-06 19:59 12.87023 10.40890 34751 ft 436 kts 95°
2026-05-06 20:00 12.86209 10.47060 34748 ft 436 kts 95°
2026-05-06 20:00 12.85399 10.53227 34751 ft 436 kts 95°
2026-05-06 20:01 12.84597 10.59348 34749 ft 436 kts 95°
2026-05-06 20:01 12.83785 10.65515 34751 ft 436 kts 95°
2026-05-06 20:02 12.82960 10.71670 34746 ft 436 kts 95°
2026-05-06 20:02 12.82136 10.77837 34749 ft 436 kts 95°
2026-05-06 20:03 12.81319 10.83964 34748 ft 436 kts 95°
2026-05-06 20:03 12.80502 10.90125 34755 ft 436 kts 95°
2026-05-06 20:04 12.79683 10.96300 34751 ft 437 kts 95°
2026-05-06 20:04 12.78844 11.02458 34744 ft 436 kts 95°
2026-05-06 20:05 12.78017 11.08617 34748 ft 436 kts 95°
2026-05-06 20:05 12.77192 11.14737 34748 ft 436 kts 95°
2026-05-06 20:06 12.76366 11.20894 34751 ft 436 kts 95°
2026-05-06 20:06 12.75537 11.27045 34750 ft 436 kts 95°
2026-05-06 20:07 12.74742 11.33210 34747 ft 436 kts 95°
2026-05-06 20:07 12.73933 11.39326 34751 ft 436 kts 95°
2026-05-06 20:08 12.73106 11.45485 34752 ft 436 kts 95°
2026-05-06 20:08 12.72269 11.51639 34746 ft 436 kts 95°
2026-05-06 20:09 12.71431 11.57784 34748 ft 436 kts 95°
2026-05-06 20:09 12.70592 11.63938 34749 ft 436 kts 95°
2026-05-06 20:10 12.69759 11.70049 34750 ft 436 kts 95°
2026-05-06 20:10 12.68916 11.76202 34749 ft 436 kts 95°
2026-05-06 20:11 12.68077 11.82354 34748 ft 436 kts 95°
2026-05-06 20:11 12.67235 11.88505 34747 ft 436 kts 95°
2026-05-06 20:12 12.66390 11.94610 34753 ft 435 kts 95°
2026-05-06 20:12 12.65546 12.00753 34744 ft 436 kts 95°
2026-05-06 20:13 12.64693 12.06895 34748 ft 436 kts 95°
2026-05-06 20:13 12.63852 12.13040 34745 ft 435 kts 95°
2026-05-06 20:14 12.63002 12.19174 34749 ft 435 kts 95°
2026-05-06 20:14 12.62157 12.25320 34754 ft 435 kts 95°
2026-05-06 20:15 12.61306 12.31459 34753 ft 435 kts 95°
2026-05-06 20:15 12.60462 12.37552 34756 ft 435 kts 95°
2026-05-06 20:16 12.59606 12.43678 34756 ft 434 kts 95°
2026-05-06 20:16 12.58744 12.49804 34756 ft 434 kts 95°
2026-05-06 20:17 12.57882 12.55928 34758 ft 434 kts 94°
2026-05-06 20:17 12.57024 12.62052 34760 ft 434 kts 94°
2026-05-06 20:18 12.56155 12.68171 34760 ft 434 kts 95°
2026-05-06 20:18 12.55303 12.74244 34759 ft 434 kts 95°
2026-05-06 20:19 12.54442 12.80353 34762 ft 433 kts 94°
2026-05-06 20:19 12.53586 12.86460 34762 ft 433 kts 95°
2026-05-06 20:20 12.52723 12.92566 34764 ft 433 kts 94°
2026-05-06 20:20 12.51858 12.98661 34760 ft 433 kts 94°
2026-05-06 20:21 12.50994 13.04758 34764 ft 432 kts 94°
2026-05-06 20:21 12.50279 13.09822 34766 ft 432 kts 94°
2026-05-06 20:22 12.49273 13.16906 34760 ft 432 kts 94°
2026-05-06 20:22 12.48551 13.21967 34763 ft 432 kts 94°
2026-05-06 20:23 12.47680 13.28046 34764 ft 432 kts 94°
2026-05-06 20:23 12.46808 13.34129 34762 ft 432 kts 94°
2026-05-06 20:24 12.45939 13.40210 34762 ft 431 kts 94°
2026-05-06 20:24 12.45059 13.46286 34752 ft 432 kts 94°
2026-05-06 20:25 12.44623 13.49366 34278 ft 438 kts 94°
2026-05-06 20:25 12.44185 13.52429 34063 ft 434 kts 94°
2026-05-06 20:25 12.43745 13.55508 33356 ft 440 kts 94°
2026-05-06 20:25 12.43307 13.58554 32861 ft 435 kts 94°
2026-05-06 20:26 12.42864 13.61617 32226 ft 433 kts 94°
2026-05-06 20:26 12.42425 13.64658 31683 ft 430 kts 94°
2026-05-06 20:26 12.41987 13.67686 31097 ft 428 kts 94°
2026-05-06 20:26 12.41551 13.70688 30525 ft 426 kts 94°
2026-05-06 20:27 12.41127 13.73638 29974 ft 423 kts 94°
2026-05-06 20:27 12.40695 13.76612 29368 ft 420 kts 95°
2026-05-06 20:27 12.40269 13.79548 28851 ft 415 kts 95°
2026-05-06 20:27 12.39847 13.82449 28311 ft 410 kts 95°
2026-05-06 20:28 12.39430 13.85326 27754 ft 407 kts 95°
2026-05-06 20:28 12.39015 13.88171 27243 ft 402 kts 96°
2026-05-06 20:28 12.38602 13.90986 26690 ft 399 kts 96°
2026-05-06 20:28 12.38194 13.93786 26183 ft 395 kts 96°
2026-05-06 20:29 12.37787 13.96565 25639 ft 392 kts 96°
2026-05-06 20:29 12.37387 13.99310 25120 ft 389 kts 97°
2026-05-06 20:29 12.36988 14.02041 24611 ft 386 kts 97°
2026-05-06 20:29 12.36598 14.04722 24110 ft 384 kts 97°
2026-05-06 20:30 12.36205 14.07413 23612 ft 381 kts 97°
2026-05-06 20:30 12.35426 14.12730 22595 ft 372 kts 98°
2026-05-06 20:30 12.35047 14.15336 22082 ft 368 kts 98°
2026-05-06 20:31 12.34664 14.17903 21631 ft 363 kts 98°
2026-05-06 20:31 12.34287 14.20443 21123 ft 359 kts 98°
2026-05-06 20:31 12.33920 14.22950 20682 ft 354 kts 98°
2026-05-06 20:31 12.33554 14.25433 20191 ft 352 kts 98°
2026-05-06 20:32 12.33191 14.27898 19741 ft 348 kts 98°
2026-05-06 20:32 12.32831 14.30335 19272 ft 345 kts 98°
2026-05-06 20:32 12.32478 14.32718 18846 ft 341 kts 98°
2026-05-06 20:32 12.32126 14.35111 18365 ft 340 kts 98°
2026-05-06 20:33 12.31771 14.37492 17904 ft 337 kts 98°
2026-05-06 20:33 12.31424 14.39845 17464 ft 332 kts 98°
2026-05-06 20:33 12.31069 14.42171 17037 ft 328 kts 98°
2026-05-06 20:33 12.30729 14.44457 16606 ft 323 kts 98°
2026-05-06 20:34 12.30395 14.46720 16167 ft 320 kts 98°
2026-05-06 20:34 12.30067 14.48951 15783 ft 315 kts 95°
2026-05-06 20:34 12.30109 14.51174 15363 ft 311 kts 85°
2026-05-06 20:34 12.30283 14.53370 14955 ft 308 kts 86°
2026-05-06 20:35 12.30427 14.55526 14519 ft 307 kts 86°
2026-05-06 20:35 12.30569 14.57694 14124 ft 304 kts 86°
2026-05-06 20:35 12.30701 14.59847 13717 ft 302 kts 86°
2026-05-06 20:35 12.30836 14.61984 13327 ft 298 kts 86°
2026-05-06 20:36 12.30970 14.64088 12943 ft 294 kts 86°
2026-05-06 20:36 12.31097 14.66143 12555 ft 291 kts 86°
2026-05-06 20:36 12.31225 14.68201 12172 ft 287 kts 86°
2026-05-06 20:36 12.31349 14.70234 11794 ft 285 kts 86°
2026-05-06 20:37 12.31471 14.72250 11404 ft 284 kts 86°
2026-05-06 20:37 12.31591 14.74210 11032 ft 281 kts 85°
2026-05-06 20:37 12.31713 14.76201 10690 ft 279 kts 85°
2026-05-06 20:37 12.31834 14.78182 10313 ft 279 kts 85°
2026-05-06 20:38 12.31954 14.80158 9936 ft 278 kts 85°
2026-05-06 20:38 12.32070 14.82119 9574 ft 276 kts 85°
2026-05-06 20:38 12.32184 14.84048 9208 ft 274 kts 85°
2026-05-06 20:38 12.32303 14.85984 8823 ft 272 kts 85°
2026-05-06 20:39 12.32420 14.87895 8522 ft 268 kts 85°
2026-05-06 20:39 12.32527 14.89800 8167 ft 268 kts 86°
2026-05-06 20:39 12.32643 14.91702 7771 ft 268 kts 86°
2026-05-06 20:39 12.32754 14.93596 7440 ft 266 kts 85°
2026-05-06 20:40 12.32872 14.95499 7098 ft 266 kts 86°
2026-05-06 20:40 12.32985 14.97400 6736 ft 268 kts 86°
2026-05-06 20:40 12.33093 14.99310 6362 ft 271 kts 85°
2026-05-06 20:40 12.33217 15.01209 5974 ft 271 kts 86°
2026-05-06 20:41 12.33321 15.03131 5644 ft 269 kts 86°
2026-05-06 20:41 12.33436 15.05037 5285 ft 269 kts 86°
2026-05-06 20:41 12.33549 15.06939 4880 ft 268 kts 86°
2026-05-06 20:41 12.33663 15.08831 4584 ft 266 kts 86°
2026-05-06 20:42 12.33774 15.10715 4229 ft 267 kts 86°
2026-05-06 20:42 12.33664 15.12600 3839 ft 268 kts 107°
2026-05-06 20:42 12.32663 15.14198 3533 ft 270 kts 134°
2026-05-06 20:42 12.31256 15.15461 3147 ft 268 kts 136°
2026-05-06 20:43 12.29939 15.16736 2971 ft 251 kts 136°
2026-05-06 20:43 12.28455 15.17596 2651 ft 246 kts 167°
2026-05-06 20:43 12.26830 15.17399 2534 ft 234 kts 203°
2026-05-06 20:43 12.25626 15.16368 2428 ft 224 kts 224°
2026-05-06 20:44 12.24616 15.15240 2308 ft 204 kts 223°
2026-05-06 20:44 12.23683 15.14237 2171 ft 187 kts 222°
2026-05-06 20:44 12.22813 15.13308 1975 ft 175 kts 221°
2026-05-06 20:44 12.21986 15.12440 1778 ft 165 kts 221°
2026-05-06 20:45 12.21190 15.11621 1576 ft 160 kts 221°
2026-05-06 20:45 12.20426 15.10807 1390 ft 156 kts 221°
2026-05-06 20:45 12.19684 15.10014 1216 ft 151 kts 219°
2026-05-06 20:45 12.18953 15.09253 1268 ft 153 kts 219°
2026-05-06 20:46 12.18185 15.08469 1415 ft 151 kts 223°
2026-05-06 20:46 12.17491 15.07587 1570 ft 176 kts 225°
2026-05-06 20:46 12.16796 15.06632 1787 ft 158 kts 228°
2026-05-06 20:46 12.16060 15.05694 1876 ft 165 kts 225°
2026-05-06 20:47 12.15273 15.04889 1656 ft 158 kts 210°
2026-05-06 20:47 12.14312 15.04557 1522 ft 138 kts 172°
2026-05-06 20:47 12.13443 15.04998 1527 ft 160 kts 133°
2026-05-06 20:47 12.12991 15.05957 1536 ft 150 kts 104°
2026-05-06 20:48 12.13011 15.06995 1477 ft 144 kts 85°
2026-05-06 20:48 12.13335 15.07957 1649 ft 147 kts 66°
2026-05-06 20:48 12.13909 15.08861 1676 ft 151 kts 58°
2026-05-06 20:48 12.14600 15.09708 1732 ft 161 kts 52°
2026-05-06 20:49 12.15532 15.10304 1699 ft 173 kts 21°
2026-05-06 20:49 12.16779 15.10310 1727 ft 180 kts 339°
2026-05-06 20:49 12.17661 15.09472 1614 ft 177 kts 282°
2026-05-06 20:49 12.17489 15.08273 1724 ft 164 kts 239°
2026-05-06 20:50 12.16955 15.07228 1684 ft 165 kts 231°
2026-05-06 20:50 12.16266 15.06336 1661 ft 157 kts 223°
2026-05-06 20:50 12.15470 15.05537 1584 ft 160 kts 216°
2026-05-06 20:50 12.14666 15.04733 1251 ft 162 kts 220°
2026-05-06 20:51 12.13898 15.03946 992 ft 149 kts 219°
2026-05-06 20:51 12.13243 15.03267 979 ft 118 kts 227°
2026-05-06 20:51 12.12793 15.02796 977 ft 52 kts 225°
2026-05-06 20:51 12.12633 15.02629 981 ft 24 kts 225°
2026-05-06 20:52 12.12528 15.02536 976 ft 13 kts 209°
2026-05-06 20:52 12.12495 15.02517 982 ft 2 kts 276°
2026-05-06 20:52 12.12510 15.02515 983 ft 5 kts 359°
2026-05-06 20:52 12.12591 15.02589 984 ft 40 kts 45°
2026-05-06 20:53 12.12825 15.02835 982 ft 50 kts 44°
2026-05-06 20:53 12.12951 15.02969 980 ft 11 kts 69°
2026-05-06 20:53 12.12928 15.03008 979 ft 6 kts 133°
2026-05-06 20:53 12.12889 15.03048 976 ft 9 kts 135°
2026-05-06 20:54 12.12841 15.03095 978 ft 10 kts 138°
2026-05-06 20:54 12.12799 15.03133 979 ft 2 kts 137°
2026-05-06 20:54 12.12797 15.03135 979 ft 0 kts 137°